Regional Weather Roundup
Issued by NWS New Orleans/Baton Rouge, LA

Home | Current Version | Previous Version | Text Only | Print | Product List | Glossary On
Versions: 1 2 3 4 5 6 7 8 9 10 11 12 13 14 15 16 17 18 19 20 21 22 23 24 25 26 27 28 29 30 31 32 33 34 35 36 37 38 39 40 41 42 43 44 45 46 47 48 49 50
881
ASUS44 KLIX 230401
RWRLIX
NEW ORLEANS REGIONAL WEATHER ROUNDUP
NATIONAL WEATHER SERVICE NEW ORLEANS LA
1000 PM CST SAT NOV 22 2014

NOTE: "FAIR" INDICATES FEW OR NO CLOUDS BELOW 12,000 FEET WITH NO
      SIGNIFICANT WEATHER AND/OR OBSTRUCTIONS TO VISIBILITY.
      SKY/WX - SKY CONDITION AND SIGNIFICANT WEATHER.
      TMP - AIR TEMPERATURE.     DP    - DEWPOINT TEMPERATURE.
      RH  - RELATIVE HUMIDITY.   PRES  - PRESSURE.
      HI  - HEAT INDEX.          WCI   - WIND CHILL INDEX.

*  THESE STATIONS ARE NOT NWS OR FAA STATIONS AND ARE NOT UNDER
   NWS QUALITY CONTROL.

LAZ038-040-048-061>063-065>067-069-230500-
SOUTHEAST LOUISIANA

CITY           SKY/WX    TMP DP  RH WIND       PRES   REMARKS
N.O. AUDUBON   NOT AVBL
N.O. INTL ARPT CLOUDY    64  60  87 E10G22    29.94S
N.O. LAKEFRONT CLOUDY    62  60  93 E23G32    29.94F FOG
N.O. DOWNTOWN* CLOUDY    61  55  82 NE5       29.95S
SLIDELL        CLOUDY    64  61  90 E8        29.94F
BATON ROUGE    CLOUDY    64  61  90 E10       29.93S
BOOTHVILLE     CLOUDY    64  64 100 E8        29.96S
BELLE CHASSE   CLOUDY    66  61  84 E13G24    29.92F
BOGALUSA*        N/A     65  60  83 SE7       29.96F
NEW ROADS*     NOT AVBL
GONZALES*      NOT AVBL
HAMMOND*       NOT AVBL
HOUMA*         CLOUDY    65  64  96 E10       29.92F FOG
PORT FOURCHON* NOT AVBL

$$

MSZ070-080>082-230500-
SOUTHERN MISSISSIPPI

CITY           SKY/WX    TMP DP  RH WIND       PRES   REMARKS
MCCOMB         CLOUDY    61  57  87 SE9G22    29.96S
GULFPORT       CLOUDY    62  59  90 E14       29.96F
BILOXI         CLOUDY    62  59  92 E15       29.97F
PASCAGOULA     CLOUDY    62  59  90 E10       29.99F

$$

COASTAL OBSERVATIONS
LAKE AND NEARSHORE STATIONS

STATION/POSITION TIME  TEMP    WIND        PRES    WAVE
                       AIR SEA DIR/SP/G            HT/PER
                 (UTC) (F)     (DEG/KT/KT) (MB)    (FT/S)
PASCAGOULA       0300   62      60/ 12/ 16 1015.5
WAVELAND YACHT   0300   62     100/ 17/ 21 1013.8
GRAND ISLE       0300   65 62  100/  8/ 12 1014.2
SOUTHWEST PASS   0300   69 72              1014.2
NEW CANAL        0300   63 54  110/  3/ 10 1014.0
SHELL BEACH      0300   61 53   80/ 17/ 19 1013.7

OFFSHORE STATIONS

STATION/POSITION TIME  TEMP    WIND        PRES    WAVE
                       AIR SEA DIR/SP/G            HT/PER
                 (UTC) (F)     (DEG/KT/KT) (MB)    (FT/S)
64 S DAUPHIN ISL 0302   70 72   90/ 25/ 29 1013.8    7/ 7

$$




USA.gov is the U.S. government's official web portal to all federal, state and local government web resources and services.